Regional Weather Roundup
Issued by NWS

Home | Current Version | Previous Version | Text Only | Print | Product List | Glossary On
Versions: 1 2 3 4 5 6 7 8 9 10 11 12 13 14 15 16 17 18 19 20 21 22 23 24 25 26 27 28 29 30 31 32 33 34 35 36 37 38 39 40 41 42 43 44 45 46 47 48 49 50
000
ASUS42 KFFC 311110
RWRGA
WEATHER ROUNDUP FOR GEORGIA
NATIONAL WEATHER SERVICE PEACHTREE CITY GA
700 AM EDT MON AUG 31 2015

NOTE: "FAIR" INDICATES FEW OR NO CLOUDS BELOW 12,000 FEET WITH NO
SIGNIFICANT WEATHER AND/OR OBSTRUCTIONS TO VISIBILITY.

* = USE WITH CAUTION. THE STATIONS MARKED WITH AN ASTERISK MAY NOT
REPORT WEATHER SUCH AS PRECIPITATION, FOG, OR THUNDER AND ARE NOT
QUALITY CONTROLLED BY NWS.

THE REMARK "TC" DENOTES TEMPERATURE READING IN DEGREES CELSIUS.

GAZ001>058-311200-
NORTH GEORGIA

CITY           SKY/WX    TMP DP  RH WIND       PRES   REMARKS
ATLANTA        MOCLDY    67  64  90 E10       30.10S
ATHENS         CLOUDY    67  64  90 CALM      30.10S
CHAMBLEE       CLOUDY    68  65  90 CALM      30.11R
PEACHTREE CITY CLOUDY    67  67 100 E5        30.11R FOG
ROME           CLOUDY    69  65  86 CALM      30.10R
WEST ATLANTA   CLOUDY    68  64  87 NE7       30.10S
GAINESVILLE    CLOUDY    66  63  90 E5        30.15R
CARTERSVILLE   CLOUDY    69  65  86 CALM      30.11R


CITY           SKY/WX    TMP DP  RH WIND       PRES   REMARKS
DALTON*        CLOUDY    66  66 100 CALM      30.12R
LAWRENCEVILLE* MOCLDY    66  57  72 NE6       30.12
MARIETTA       CLOUDY    68  64  88 VRB2      30.11R FOG
KENNESAW*      CLOUDY    66  63  88 E6        30.12
BLAIRSVILLE*     N/A     61  54  76 CALM      30.16S HAZE
$$

GAZ059>098-102>109-311200-
CENTRAL GEORGIA

CITY           SKY/WX    TMP DP  RH WIND       PRES   REMARKS
AUGUSTA-BUSH   CLOUDY    69  69 100 N5        30.06R FOG
AUGUSTA-DANIEL CLOUDY    71  68  90 N6        30.08R FOG
COLUMBUS       CLOUDY    73  70  88 E5        30.06R
MACON          CLOUDY    71  69  93 NE5       30.07R
ROBINS AFB     CLOUDY    72  70  94 NE3       30.06S


CITY           SKY/WX    TMP DP  RH WIND       PRES   REMARKS
LAGRANGE*      CLOUDY    74  74 100 CALM      30.08R
SYLVANIA*      FOG       74  74 100 N5        30.04S VSB 1/2
MILLEDGEVILLE* CLOUDY    70  66  88 CALM      30.08S
$$

GAZ099>101-110>166-311200-
SOUTH GEORGIA

CITY           SKY/WX    TMP DP  RH WIND       PRES   REMARKS
SAVANNAH       FOG       74  72  93 N6        30.00F VSB 1/2
VALDOSTA       CLOUDY    75  75 100 NE3       30.02R
ALMA           CLOUDY    75  74  96 CALM      30.02S
ST SIMONS      CLOUDY    75  75 100 CALM      30.00R
FT STEWART     CLOUDY    74  73  95 NW1       29.99S
ALBANY         MOCLDY    75  72  90 NE3       30.06R
HUNTER AFB     MOCLDY    73  73 100 CALM      29.98R
MOODY AFB      CLOUDY    73  73 100 N2        30.01S FOG
BRUNSWICK      CLOUDY    72  72 100 NW3       30.01R


CITY           SKY/WX    TMP DP  RH WIND       PRES   REMARKS
BAINBRIDGE*    CLOUDY    72  70  94 NE6       30.03R
MOULTRIE*      PTCLDY    73  72  94 CALM      30.04R
VIDALIA*       FOG       73  72  94 NE5       30.04S VSB 3/4
WAYCROSS*      CLOUDY    77  77 100 N3        30.02R FOG
DOUGLAS*       CLOUDY    77  75  94 CALM      30.04S
$$


USA.gov is the U.S. government's official web portal to all federal, state and local government web resources and services.